カタログに戻る

ARIANE 5 R/B

運用中HEO
NORAD 40942·ROCKET BODY·🇫🇷 France

打ち上げ Sep 30, 2015 から Guiana Space Centre

Loading…

次のパス (今後24時間)

TLE

最新Source: Space-Track

元期: Sep 14, 2026, 08:10 UTC

1 40942U 15054C   26257.34091986  .00015156  00000-0  96663-3 0  9997
2 40942   6.5356  26.3090 6811027   0.4081 359.8301  2.92795369101883

AllMySatでARIANE 5 R/Bをリアルタイム追跡

Download on the App Store